Location: Broadmoor
(37.6867°N, 122.4828°W)
Time: 05:36:52
(UTC+00:00)

Cosmos 2278 Rocket - Pass Details

Date: 03 August 2024
Orbit: 841 x 844 km, 71.0° (Epoch: 14 September)

Event Time Altitude Azimuth Distance (km) Brightness Sun altitude
Rises 12:06:36 0° 342° (NNW) 3,403 5.6 -12.9°
Reaches altitude 10° 12:09:06 10° 347° (NNW) 2,465 4.9 -12.5°
Maximum altitude 12:14:39 55° 65° (ENE) 1,003 3.0 -11.6°
Drops below altitude 10° 12:20:10 10° 143° (SE) 2,453 4.7 -10.6°
Sets 12:22:40 0° 147° (SSE) 3,385 5.4 -10.2°
